Time,TemperatureF,DewpointF,PressureIn,WindDirection,WindDirectionDegrees,WindSpeedMPH,WindSpeedGustMPH,Humidity,HourlyPrecipIn,Conditions,Clouds,dailyrainin,SoftwareType,DateUTC
2013-07-28 00:00:00,49.5,43.9,29.93,NNE,19,0.0,0.0,81,0.00,,---,0.00,VWS V13.01,2013-07-28 05:00:00,
2013-07-28 00:05:00,49.5,44.2,29.93,NNE,18,0.0,0.0,82,0.00,,---,0.00,VWS V13.01,2013-07-28 05:05:00,
2013-07-28 00:10:00,49.5,44.2,29.93,NNE,19,0.0,0.0,82,0.00,,---,0.00,VWS V13.01,2013-07-28 05:10:00,
2013-07-28 00:15:00,49.5,44.2,29.93,NNE,19,0.0,0.0,82,0.00,,---,0.00,VWS V13.01,2013-07-28 05:15:00,
2013-07-28 00:20:00,49.5,44.2,29.93,NNE,18,0.0,0.0,82,0.00,,---,0.00,VWS V13.01,2013-07-28 05:20:00,
2013-07-28 00:25:00,49.5,44.2,29.93,NNE,19,0.0,0.0,82,0.00,,---,0.00,VWS V13.01,2013-07-28 05:25:00,
2013-07-28 00:30:00,49.5,44.2,29.93,NNE,18,0.0,0.0,82,0.04,,---,0.04,VWS V13.01,2013-07-28 05:30:00,
2013-07-28 00:35:00,49.5,44.5,29.93,NNE,18,0.0,0.0,83,0.04,,---,0.04,VWS V13.01,2013-07-28 05:35:00,
2013-07-28 00:41:00,49.5,44.5,29.93,NNE,19,0.0,0.0,83,0.04,,---,0.04,VWS V13.01,2013-07-28 05:41:00,
2013-07-28 00:46:00,49.5,44.5,29.93,NNE,19,0.0,0.0,83,0.04,,---,0.04,VWS V13.01,2013-07-28 05:46:00,
2013-07-28 00:51:00,49.3,44.3,29.93,NNE,19,0.0,0.0,83,0.04,,---,0.04,VWS V13.01,2013-07-28 05:51:00,
2013-07-28 00:56:00,49.3,44.3,29.93,NNE,19,0.0,0.0,83,0.08,,---,0.08,VWS V13.01,2013-07-28 05:56:00,
2013-07-28 01:01:00,49.5,44.5,29.93,NNE,19,0.0,0.0,83,0.08,,---,0.08,VWS V13.01,2013-07-28 06:01:00,
2013-07-28 01:06:00,49.5,44.5,29.93,NNE,19,0.0,0.0,83,0.08,,---,0.08,VWS V13.01,2013-07-28 06:06:00,
2013-07-28 01:11:00,49.5,44.5,29.93,NNE,18,0.0,0.0,83,0.08,,---,0.08,VWS V13.01,2013-07-28 06:11:00,
2013-07-28 01:16:00,49.5,44.5,29.93,NNE,18,0.0,0.0,83,0.08,,---,0.08,VWS V13.01,2013-07-28 06:16:00,
2013-07-28 01:21:00,49.5,44.5,29.93,NNE,19,0.0,0.0,83,0.08,,---,0.08,VWS V13.01,2013-07-28 06:21:00,
2013-07-28 01:26:00,49.5,44.5,29.93,NNE,19,0.0,0.0,83,0.08,,---,0.08,VWS V13.01,2013-07-28 06:26:00,
2013-07-28 01:31:00,49.5,44.5,29.93,NNE,18,0.0,0.0,83,0.04,,---,0.08,VWS V13.01,2013-07-28 06:31:00,
2013-07-28 01:36:00,49.5,44.5,29.93,NNE,19,0.0,0.0,83,0.04,,---,0.08,VWS V13.01,2013-07-28 06:36:00,
2013-07-28 01:41:00,49.6,44.7,29.93,NNE,19,0.0,0.0,83,0.04,,---,0.08,VWS V13.01,2013-07-28 06:41:00,
2013-07-28 01:46:00,49.6,44.7,29.93,NNE,18,0.0,0.0,83,0.04,,---,0.08,VWS V13.01,2013-07-28 06:46:00,
2013-07-28 01:51:00,49.6,44.7,29.93,NNE,18,0.0,0.0,83,0.04,,---,0.08,VWS V13.01,2013-07-28 06:51:00,
2013-07-28 01:57:00,49.6,45.0,29.93,NNE,18,0.0,0.0,84,0.00,,---,0.08,VWS V13.01,2013-07-28 06:57:00,
2013-07-28 02:02:00,49.6,45.0,29.93,NNE,19,0.0,0.0,84,0.00,,---,0.08,VWS V13.01,2013-07-28 07:02:00,
2013-07-28 02:07:00,49.6,45.0,29.93,NNE,18,0.0,0.0,84,0.00,,---,0.08,VWS V13.01,2013-07-28 07:07:00,
2013-07-28 02:12:00,49.6,45.0,29.93,NNE,19,0.0,0.0,84,0.00,,---,0.08,VWS V13.01,2013-07-28 07:12:00,
2013-07-28 02:17:00,49.6,45.0,29.93,NNE,19,0.0,0.0,84,0.00,,---,0.08,VWS V13.01,2013-07-28 07:17:00,
2013-07-28 02:22:00,49.8,45.2,29.93,NNE,19,0.0,0.0,84,0.00,,---,0.08,VWS V13.01,2013-07-28 07:22:00,
2013-07-28 02:27:00,50.0,45.4,29.93,NNE,18,0.0,0.0,84,0.00,,---,0.08,VWS V13.01,2013-07-28 07:27:00,
2013-07-28 02:32:00,50.0,45.4,29.93,NNE,19,0.0,0.0,84,0.00,,---,0.08,VWS V13.01,2013-07-28 07:32:00,
2013-07-28 02:37:00,50.0,45.4,29.93,NNE,19,0.0,0.0,84,0.00,,---,0.08,VWS V13.01,2013-07-28 07:37:00,
2013-07-28 02:42:00,50.2,45.5,29.93,NNE,19,0.0,0.0,84,0.00,,---,0.08,VWS V13.01,2013-07-28 07:42:00,
2013-07-28 02:47:00,50.2,45.5,29.93,NNE,19,0.0,0.0,84,0.00,,---,0.08,VWS V13.01,2013-07-28 07:47:00,
2013-07-28 02:52:00,50.2,45.5,29.93,NNE,19,0.0,0.0,84,0.00,,---,0.08,VWS V13.01,2013-07-28 07:52:00,
2013-07-28 02:57:00,50.4,45.7,29.93,NNE,18,0.0,0.0,84,0.00,,---,0.08,VWS V13.01,2013-07-28 07:57:00,
2013-07-28 03:02:00,50.5,46.2,29.93,NNE,19,0.0,0.0,85,0.00,,---,0.08,VWS V13.01,2013-07-28 08:02:00,
2013-07-28 03:07:00,50.7,46.4,29.93,NNE,18,0.0,0.0,85,0.00,,---,0.08,VWS V13.01,2013-07-28 08:07:00,
2013-07-28 03:12:00,50.9,46.6,29.93,NNE,19,0.0,0.0,85,0.00,,---,0.08,VWS V13.01,2013-07-28 08:12:00,
2013-07-28 03:17:00,50.9,46.6,29.93,NNE,19,0.0,0.0,85,0.00,,---,0.08,VWS V13.01,2013-07-28 08:17:00,
2013-07-28 03:22:00,51.1,46.7,29.93,NNE,19,0.0,0.0,85,0.00,,---,0.08,VWS V13.01,2013-07-28 08:22:00,
2013-07-28 03:27:00,51.1,47.0,29.93,NNE,19,0.0,0.0,86,0.00,,---,0.08,VWS V13.01,2013-07-28 08:27:00,
2013-07-28 03:32:00,51.1,47.0,29.93,NNE,19,0.0,0.0,86,0.00,,---,0.08,VWS V13.01,2013-07-28 08:32:00,
2013-07-28 03:38:00,51.1,47.0,29.93,NNE,18,2.7,3.1,86,0.00,,---,0.08,VWS V13.01,2013-07-28 08:38:00,
2013-07-28 03:43:00,51.3,47.2,29.93,NNE,19,0.0,3.1,86,0.00,,---,0.08,VWS V13.01,2013-07-28 08:43:00,
2013-07-28 03:48:00,51.3,47.2,29.93,NNE,19,3.1,3.1,86,0.00,,---,0.08,VWS V13.01,2013-07-28 08:48:00,
2013-07-28 03:53:00,51.3,47.2,29.93,NNE,18,0.0,0.0,86,0.00,,---,0.08,VWS V13.01,2013-07-28 08:53:00,
2013-07-28 03:58:00,51.3,47.5,29.93,NNE,18,0.0,0.0,87,0.00,,---,0.08,VWS V13.01,2013-07-28 08:58:00,
2013-07-28 04:03:00,51.3,47.5,29.93,NNE,19,0.0,0.0,87,0.00,,---,0.08,VWS V13.01,2013-07-28 09:03:00,
2013-07-28 04:08:00,51.1,47.3,29.93,NNE,18,0.0,0.0,87,0.00,,---,0.08,VWS V13.01,2013-07-28 09:08:00,
2013-07-28 04:13:00,51.3,47.5,29.93,NNE,19,0.0,0.0,87,0.00,,---,0.08,VWS V13.01,2013-07-28 09:13:00,
2013-07-28 04:18:00,51.3,47.5,29.93,NNE,18,0.0,0.0,87,0.00,,---,0.08,VWS V13.01,2013-07-28 09:18:00,
2013-07-28 04:23:00,51.1,47.3,29.93,NNE,19,0.0,0.0,87,0.00,,---,0.08,VWS V13.01,2013-07-28 09:23:00,
2013-07-28 04:28:00,51.1,47.7,29.93,NNE,19,0.0,0.0,88,0.00,,---,0.08,VWS V13.01,2013-07-28 09:28:00,
2013-07-28 04:33:00,51.1,47.7,29.93,NNE,18,0.0,0.0,88,0.00,,---,0.08,VWS V13.01,2013-07-28 09:33:00,
2013-07-28 04:38:00,51.1,47.7,29.93,NNE,19,0.0,0.0,88,0.00,,---,0.08,VWS V13.01,2013-07-28 09:38:00,
2013-07-28 04:43:00,51.1,47.7,29.93,NNE,19,0.0,0.0,88,0.00,,---,0.08,VWS V13.01,2013-07-28 09:43:00,
2013-07-28 04:48:00,51.1,47.7,29.93,NNE,18,0.0,0.0,88,0.00,,---,0.08,VWS V13.01,2013-07-28 09:48:00,
2013-07-28 04:53:00,51.1,47.7,29.93,NNE,19,2.7,4.0,88,0.00,,---,0.08,VWS V13.01,2013-07-28 09:53:00,
2013-07-28 04:58:00,51.1,47.7,29.93,NNE,19,2.7,3.1,88,0.00,,---,0.08,VWS V13.01,2013-07-28 09:58:00,
2013-07-28 05:03:00,51.1,47.7,29.93,NNE,19,4.0,4.0,88,0.00,,---,0.08,VWS V13.01,2013-07-28 10:03:00,
2013-07-28 05:08:00,51.1,47.7,29.93,NNE,19,3.6,3.6,88,0.00,,---,0.08,VWS V13.01,2013-07-28 10:08:00,
2013-07-28 05:13:00,51.1,47.7,29.93,NNE,19,3.1,3.6,88,0.00,,---,0.08,VWS V13.01,2013-07-28 10:13:00,
2013-07-28 05:18:00,51.1,47.7,29.93,NNE,19,0.0,2.7,88,0.00,,---,0.08,VWS V13.01,2013-07-28 10:18:00,
2013-07-28 05:23:00,50.9,47.8,29.93,NNE,19,3.1,3.6,89,0.00,,---,0.08,VWS V13.01,2013-07-28 10:23:00,
2013-07-28 05:28:00,50.9,47.8,29.93,NNE,18,0.0,0.0,89,0.00,,---,0.08,VWS V13.01,2013-07-28 10:28:00,
2013-07-28 05:33:00,50.9,47.8,29.93,NNE,18,0.0,0.0,89,0.00,,---,0.08,VWS V13.01,2013-07-28 10:33:00,
2013-07-28 05:38:00,50.9,47.8,29.93,NNE,19,0.0,0.0,89,0.00,,---,0.08,VWS V13.01,2013-07-28 10:38:00,
2013-07-28 05:43:00,50.9,47.8,29.93,NNE,19,3.1,3.1,89,0.00,,---,0.08,VWS V13.01,2013-07-28 10:43:00,
2013-07-28 05:49:00,50.9,47.8,29.93,NNE,19,3.1,3.1,89,0.00,,---,0.08,VWS V13.01,2013-07-28 10:49:00,
2013-07-28 05:54:00,50.9,47.8,29.93,NNE,18,0.0,2.7,89,0.00,,---,0.08,VWS V13.01,2013-07-28 10:54:00,
2013-07-28 05:59:00,50.9,47.8,29.93,NNE,18,0.0,0.0,89,0.00,,---,0.08,VWS V13.01,2013-07-28 10:59:00,
2013-07-28 06:04:00,50.9,47.8,29.93,NNE,19,4.0,4.0,89,0.00,,---,0.08,VWS V13.01,2013-07-28 11:04:00,
2013-07-28 06:09:00,50.9,47.8,29.93,NNE,18,3.1,3.1,89,0.00,,---,0.08,VWS V13.01,2013-07-28 11:09:00,
2013-07-28 06:14:00,50.9,47.8,29.93,NNE,19,0.0,0.0,89,0.00,,---,0.08,VWS V13.01,2013-07-28 11:14:00,
2013-07-28 06:19:00,50.9,47.8,29.93,NNE,19,0.0,0.0,89,0.00,,---,0.08,VWS V13.01,2013-07-28 11:19:00,
2013-07-28 06:24:00,50.9,47.8,29.93,NNE,19,0.0,0.0,89,0.00,,---,0.08,VWS V13.01,2013-07-28 11:24:00,
2013-07-28 06:29:00,50.9,47.8,29.93,NNE,19,0.0,0.0,89,0.00,,---,0.08,VWS V13.01,2013-07-28 11:29:00,
2013-07-28 06:34:00,50.9,47.8,29.93,NNE,19,0.0,2.7,89,0.00,,---,0.08,VWS V13.01,2013-07-28 11:34:00,
2013-07-28 06:39:00,51.1,48.2,29.93,NNE,19,0.0,0.0,90,0.00,,---,0.08,VWS V13.01,2013-07-28 11:39:00,
2013-07-28 06:44:00,51.1,48.2,29.93,NNE,19,0.0,0.0,90,0.00,,---,0.08,VWS V13.01,2013-07-28 11:44:00,
2013-07-28 06:49:00,51.1,48.2,29.93,ENE,77,0.0,0.0,90,0.00,,---,0.08,VWS V13.01,2013-07-28 11:49:00,
2013-07-28 06:54:00,51.1,48.2,29.93,ENE,78,0.0,0.0,90,0.00,,---,0.08,VWS V13.01,2013-07-28 11:54:00,
2013-07-28 06:59:00,51.1,48.2,29.96,WSW,240,0.0,0.0,90,0.00,,---,0.08,VWS V13.01,2013-07-28 11:59:00,
2013-07-28 07:04:00,51.1,48.2,29.96,WSW,240,0.0,0.0,90,0.00,,---,0.08,VWS V13.01,2013-07-28 12:04:00,
2013-07-28 07:09:00,51.1,48.2,29.96,SE,138,0.0,0.0,90,0.00,,---,0.08,VWS V13.01,2013-07-28 12:09:00,
2013-07-28 07:14:00,51.1,48.2,29.96,SE,138,0.0,0.0,90,0.00,,---,0.08,VWS V13.01,2013-07-28 12:14:00,
2013-07-28 07:19:00,51.1,48.2,29.96,West,262,2.7,3.1,90,0.00,,---,0.08,VWS V13.01,2013-07-28 12:19:00,
2013-07-28 07:25:00,51.3,48.4,29.96,WSW,258,0.0,3.1,90,0.00,,---,0.08,VWS V13.01,2013-07-28 12:25:00,
2013-07-28 07:30:00,51.3,48.4,29.96,WSW,258,0.0,0.0,90,0.00,,---,0.08,VWS V13.01,2013-07-28 12:30:00,
2013-07-28 07:35:00,51.4,48.6,29.96,NE,45,0.0,0.0,90,0.00,,---,0.08,VWS V13.01,2013-07-28 12:35:00,
2013-07-28 07:40:00,51.6,48.8,29.96,WSW,249,0.0,0.0,90,0.00,,---,0.08,VWS V13.01,2013-07-28 12:40:00,
2013-07-28 07:45:00,51.6,48.8,29.96,WSW,245,0.0,0.0,90,0.00,,---,0.08,VWS V13.01,2013-07-28 12:45:00,
2013-07-28 07:50:00,51.6,48.8,29.96,North,4,0.0,0.0,90,0.00,,---,0.08,VWS V13.01,2013-07-28 12:50:00,
2013-07-28 07:55:00,51.6,48.8,29.96,NNE,30,4.0,4.0,90,0.00,,---,0.08,VWS V13.01,2013-07-28 12:55:00,
2013-07-28 08:00:00,51.6,48.8,29.96,NNE,16,0.0,2.7,90,0.00,,---,0.08,VWS V13.01,2013-07-28 13:00:00,
2013-07-28 08:05:00,51.6,48.8,29.96,NNE,16,0.0,0.0,90,0.00,,---,0.08,VWS V13.01,2013-07-28 13:05:00,
2013-07-28 08:10:00,51.6,48.8,29.96,NNE,16,2.7,2.7,90,0.00,,---,0.08,VWS V13.01,2013-07-28 13:10:00,
2013-07-28 08:15:00,51.8,49.0,29.96,NNW,338,3.1,3.1,90,0.00,,---,0.08,VWS V13.01,2013-07-28 13:15:00,
2013-07-28 08:20:00,51.8,49.0,29.96,NNW,338,0.0,0.0,90,0.00,,---,0.08,VWS V13.01,2013-07-28 13:20:00,
2013-07-28 08:25:00,51.8,49.0,29.96,SE,146,0.0,0.0,90,0.00,,---,0.08,VWS V13.01,2013-07-28 13:25:00,
2013-07-28 08:30:00,51.8,49.0,29.96,NNW,345,0.0,3.1,90,0.00,,---,0.08,VWS V13.01,2013-07-28 13:30:00,
2013-07-28 08:35:00,52.0,49.1,29.96,NE,52,0.0,0.0,90,0.00,,---,0.08,VWS V13.01,2013-07-28 13:35:00,
2013-07-28 08:40:00,52.0,49.1,29.96,NE,50,2.7,4.0,90,0.00,,---,0.08,VWS V13.01,2013-07-28 13:40:00,
2013-07-28 08:45:00,52.0,49.1,29.96,NNE,14,3.1,3.1,90,0.00,,---,0.08,VWS V13.01,2013-07-28 13:45:00,
2013-07-28 08:50:00,52.2,49.3,29.96,NNE,19,0.0,0.0,90,0.00,,---,0.08,VWS V13.01,2013-07-28 13:50:00,
2013-07-28 08:55:00,52.3,49.5,29.96,NW,305,0.0,0.0,90,0.00,,---,0.08,VWS V13.01,2013-07-28 13:55:00,
2013-07-28 09:00:00,52.5,49.7,29.96,NW,325,0.0,3.1,90,0.00,,---,0.08,VWS V13.01,2013-07-28 14:00:00,
2013-07-28 09:06:00,52.5,49.7,29.96,NW,325,0.0,0.0,90,0.00,,---,0.08,VWS V13.01,2013-07-28 14:06:00,
2013-07-28 09:11:00,52.7,49.8,29.96,NW,325,0.0,0.0,90,0.00,,---,0.08,VWS V13.01,2013-07-28 14:11:00,
2013-07-28 09:16:00,52.7,49.8,29.96,NW,322,0.0,2.7,90,0.00,,---,0.08,VWS V13.01,2013-07-28 14:16:00,
2013-07-28 09:21:00,52.5,49.4,29.96,NNE,19,2.7,4.0,89,0.00,,---,0.08,VWS V13.01,2013-07-28 14:21:00,
2013-07-28 09:26:00,52.3,49.2,29.96,NE,54,2.7,4.5,89,0.00,,---,0.08,VWS V13.01,2013-07-28 14:26:00,
2013-07-28 09:31:00,52.5,49.4,29.96,ENE,57,3.6,3.6,89,0.00,,---,0.08,VWS V13.01,2013-07-28 14:31:00,
2013-07-28 09:36:00,52.5,49.4,29.96,ENE,57,0.0,0.0,89,0.00,,---,0.08,VWS V13.01,2013-07-28 14:36:00,
2013-07-28 09:41:00,52.5,49.1,29.96,SW,219,3.6,3.6,88,0.00,,---,0.08,VWS V13.01,2013-07-28 14:41:00,
2013-07-28 09:47:00,52.3,48.9,29.96,NNE,27,0.0,0.0,88,0.00,,---,0.08,VWS V13.01,2013-07-28 14:47:00,
2013-07-28 09:52:00,52.2,48.7,29.96,NNE,21,0.0,0.0,88,0.00,,---,0.08,VWS V13.01,2013-07-28 14:52:00,
2013-07-28 09:57:00,52.3,48.9,29.96,NNE,21,0.0,0.0,88,0.00,,---,0.08,VWS V13.01,2013-07-28 14:57:00,
2013-07-28 10:02:00,52.3,48.6,29.96,North,7,3.1,4.5,87,0.00,,---,0.08,VWS V13.01,2013-07-28 15:02:00,
2013-07-28 10:07:00,52.3,48.6,29.96,North,8,4.0,4.0,87,0.00,,---,0.08,VWS V13.01,2013-07-28 15:07:00,
2013-07-28 10:12:00,52.5,48.8,29.96,NNE,16,4.5,4.5,87,0.00,,---,0.08,VWS V13.01,2013-07-28 15:12:00,
2013-07-28 10:17:00,52.7,49.0,29.96,NNE,16,0.0,0.0,87,0.00,,---,0.08,VWS V13.01,2013-07-28 15:17:00,
2013-07-28 10:22:00,52.7,49.0,29.96,North,350,3.1,3.6,87,0.00,,---,0.08,VWS V13.01,2013-07-28 15:22:00,
2013-07-28 10:27:00,53.1,49.3,29.96,SE,141,3.1,4.0,87,0.00,,---,0.08,VWS V13.01,2013-07-28 15:27:00,
2013-07-28 10:32:00,53.4,49.7,29.96,NW,306,4.5,5.1,87,0.00,,---,0.08,VWS V13.01,2013-07-28 15:32:00,
2013-07-28 10:37:00,54.0,49.9,29.96,NNE,21,3.1,4.5,86,0.00,,---,0.08,VWS V13.01,2013-07-28 15:37:00,
2013-07-28 10:42:00,54.1,49.7,29.96,West,266,0.0,3.1,85,0.00,,---,0.08,VWS V13.01,2013-07-28 15:42:00,
2013-07-28 10:47:00,54.3,49.6,29.96,NNE,21,3.6,3.6,84,0.00,,---,0.08,VWS V13.01,2013-07-28 15:47:00,
2013-07-28 10:52:00,54.5,49.5,29.96,NNE,22,0.0,0.0,83,0.00,,---,0.08,VWS V13.01,2013-07-28 15:52:00,
2013-07-28 10:57:00,54.5,49.5,29.96,NNE,22,4.0,4.0,83,0.00,,---,0.08,VWS V13.01,2013-07-28 15:57:00,
2013-07-28 11:03:00,54.7,49.0,29.96,NW,326,2.7,3.6,81,0.00,,---,0.08,VWS V13.01,2013-07-28 16:03:00,
2013-07-28 11:08:00,54.9,48.5,29.96,NW,326,2.7,3.1,79,0.00,,---,0.08,VWS V13.01,2013-07-28 16:08:00,
2013-07-28 11:13:00,55.0,48.3,29.96,NW,326,3.6,3.6,78,0.00,,---,0.08,VWS V13.01,2013-07-28 16:13:00,
2013-07-28 11:18:00,55.0,48.0,29.96,NE,47,4.5,4.5,77,0.00,,---,0.08,VWS V13.01,2013-07-28 16:18:00,
2013-07-28 11:23:00,55.2,47.8,29.96,NE,55,3.1,5.6,76,0.00,,---,0.08,VWS V13.01,2013-07-28 16:23:00,
2013-07-28 11:28:00,55.4,47.6,29.96,North,357,2.7,4.0,75,0.00,,---,0.08,VWS V13.01,2013-07-28 16:28:00,
2013-07-28 11:33:00,55.8,47.6,29.96,NNW,336,2.7,2.7,74,0.00,,---,0.08,VWS V13.01,2013-07-28 16:33:00,
2013-07-28 11:38:00,56.1,47.2,29.96,NNW,348,3.6,3.6,72,0.00,,---,0.08,VWS V13.01,2013-07-28 16:38:00,
2013-07-28 11:43:00,56.8,47.2,29.96,NNE,26,4.5,4.5,70,0.00,,---,0.08,VWS V13.01,2013-07-28 16:43:00,
2013-07-28 11:48:00,57.4,44.9,29.96,North,10,3.1,3.1,63,0.00,,---,0.08,VWS V13.01,2013-07-28 16:48:00,
2013-07-28 11:53:00,57.6,42.5,29.96,North,357,4.0,4.0,57,0.00,,---,0.08,VWS V13.01,2013-07-28 16:53:00,
2013-07-28 11:58:00,57.9,45.0,29.96,SSW,212,4.5,4.7,62,0.00,,---,0.08,VWS V13.01,2013-07-28 16:58:00,
2013-07-28 12:03:00,58.1,43.4,29.96,NNE,23,4.7,4.7,58,0.00,,---,0.08,VWS V13.01,2013-07-28 17:03:00,
2013-07-28 12:08:00,58.1,43.0,29.96,NE,36,4.7,4.7,57,0.00,,---,0.08,VWS V13.01,2013-07-28 17:08:00,
2013-07-28 12:13:00,58.5,42.4,29.96,NNE,21,4.5,5.6,55,0.00,,---,0.08,VWS V13.01,2013-07-28 17:13:00,
2013-07-28 12:18:00,58.8,41.2,29.96,NNW,327,4.0,4.7,52,0.00,,---,0.08,VWS V13.01,2013-07-28 17:18:00,
2013-07-28 12:23:00,59.0,41.9,29.96,West,274,4.0,5.1,53,0.00,,---,0.08,VWS V13.01,2013-07-28 17:23:00,
2013-07-28 12:28:00,58.8,41.7,29.96,North,8,4.5,5.1,53,0.00,,---,0.08,VWS V13.01,2013-07-28 17:28:00,
2013-07-28 12:34:00,58.8,42.2,29.96,NNE,18,5.1,5.1,54,0.00,,---,0.08,VWS V13.01,2013-07-28 17:34:00,
2013-07-28 12:39:00,59.2,42.1,29.96,NNE,33,4.7,5.6,53,0.00,,---,0.08,VWS V13.01,2013-07-28 17:39:00,
2013-07-28 12:44:00,59.4,42.7,29.96,NW,313,4.5,4.5,54,0.00,,---,0.08,VWS V13.01,2013-07-28 17:44:00,
2013-07-28 12:49:00,59.7,41.6,29.96,North,11,5.1,5.1,51,0.00,,---,0.08,VWS V13.01,2013-07-28 17:49:00,
2013-07-28 12:54:00,59.7,41.1,29.96,NNE,16,4.0,4.0,50,0.00,,---,0.08,VWS V13.01,2013-07-28 17:54:00,
2013-07-28 12:59:00,60.1,42.4,29.96,NW,306,3.1,3.1,52,0.00,,---,0.08,VWS V13.01,2013-07-28 17:59:00,
2013-07-28 13:04:00,60.3,42.1,29.96,NNE,24,0.0,0.0,51,0.00,,---,0.08,VWS V13.01,2013-07-28 18:04:00,
2013-07-28 13:09:00,60.1,41.9,29.96,SW,228,0.0,0.0,51,0.00,,---,0.08,VWS V13.01,2013-07-28 18:09:00,
2013-07-28 13:14:00,59.7,42.1,29.96,North,9,0.0,0.0,52,0.00,,---,0.08,VWS V13.01,2013-07-28 18:14:00,
2013-07-28 13:19:00,59.5,41.9,29.96,WSW,243,4.7,4.7,52,0.00,,---,0.08,VWS V13.01,2013-07-28 18:19:00,
2013-07-28 13:24:00,59.2,41.1,29.96,North,8,2.7,3.1,51,0.00,,---,0.08,VWS V13.01,2013-07-28 18:24:00,
2013-07-28 13:29:00,59.2,41.6,29.96,North,357,3.1,4.0,52,0.00,,---,0.08,VWS V13.01,2013-07-28 18:29:00,
2013-07-28 13:34:00,59.2,41.6,29.96,North,5,0.0,0.0,52,0.00,,---,0.08,VWS V13.01,2013-07-28 18:34:00,
2013-07-28 13:35:00,59.2,41.6,29.96,North,5,0.0,0.0,52,0.00,,---,0.08,VWS V13.01,2013-07-28 18:35:00,
2013-07-28 13:40:00,59.2,42.1,29.96,NW,325,3.1,4.5,53,0.00,,---,0.08,VWS V13.01,2013-07-28 18:40:00,
2013-07-28 13:45:00,59.2,42.1,29.96,NNW,331,0.0,0.0,53,0.00,,---,0.08,VWS V13.01,2013-07-28 18:45:00,
2013-07-28 13:50:00,59.2,42.6,29.96,WSW,256,0.0,4.5,54,0.00,,---,0.08,VWS V13.01,2013-07-28 18:50:00,
2013-07-28 13:55:00,59.4,42.2,29.96,North,0,3.1,3.6,53,0.00,,---,0.08,VWS V13.01,2013-07-28 18:55:00,
2013-07-28 14:00:00,59.7,42.1,29.96,West,276,4.0,4.0,52,0.00,,---,0.08,VWS V13.01,2013-07-28 19:00:00,
2013-07-28 14:05:00,60.1,42.4,29.96,North,357,3.1,3.1,52,0.00,,---,0.08,VWS V13.01,2013-07-28 19:05:00,
2013-07-28 14:10:00,60.8,43.6,29.96,NNE,27,3.6,4.7,53,0.00,,---,0.08,VWS V13.01,2013-07-28 19:10:00,
2013-07-28 14:15:00,61.7,42.4,29.98,North,357,0.0,4.0,49,0.00,,---,0.08,VWS V13.01,2013-07-28 19:15:00,
2013-07-28 14:20:00,62.2,43.4,29.98,NNW,333,4.5,4.5,50,0.00,,---,0.08,VWS V13.01,2013-07-28 19:20:00,
2013-07-28 14:25:00,62.6,42.7,29.98,NE,34,4.5,4.5,48,0.00,,---,0.08,VWS V13.01,2013-07-28 19:25:00,
2013-07-28 14:30:00,62.6,42.1,29.98,West,260,3.6,3.6,47,0.00,,---,0.08,VWS V13.01,2013-07-28 19:30:00,
2013-07-28 14:35:00,63.0,43.0,29.98,NNW,331,0.0,4.0,48,0.00,,---,0.08,VWS V13.01,2013-07-28 19:35:00,
2013-07-28 14:40:00,63.1,43.2,29.98,West,260,0.0,0.0,48,0.00,,---,0.08,VWS V13.01,2013-07-28 19:40:00,
2013-07-28 14:45:00,63.7,44.2,29.98,NNE,25,6.0,6.0,49,0.00,,---,0.08,VWS V13.01,2013-07-28 19:45:00,
2013-07-28 14:50:00,64.4,43.8,29.98,NNW,328,3.6,4.0,47,0.00,,---,0.08,VWS V13.01,2013-07-28 19:50:00,
2013-07-28 14:56:00,64.9,43.1,29.98,South,187,3.6,6.9,45,0.00,,---,0.08,VWS V13.01,2013-07-28 19:56:00,
2013-07-28 15:01:00,65.1,43.3,29.98,NNW,345,4.0,4.0,45,0.00,,---,0.08,VWS V13.01,2013-07-28 20:01:00,
2013-07-28 15:06:00,65.5,43.0,29.98,NNE,16,4.7,4.7,44,0.00,,---,0.08,VWS V13.01,2013-07-28 20:06:00,
2013-07-28 15:11:00,65.5,42.4,29.98,North,350,4.5,6.0,43,0.00,,---,0.08,VWS V13.01,2013-07-28 20:11:00,
2013-07-28 15:16:00,65.3,41.6,29.98,NNW,332,0.0,5.1,42,0.00,,---,0.08,VWS V13.01,2013-07-28 20:16:00,
2013-07-28 15:21:00,65.1,42.1,29.98,WSW,243,3.6,4.7,43,0.00,,---,0.08,VWS V13.01,2013-07-28 20:21:00,
2013-07-28 15:26:00,64.4,40.8,29.98,NW,317,2.7,4.5,42,0.00,,---,0.08,VWS V13.01,2013-07-28 20:26:00,
2013-07-28 15:32:00,63.5,41.2,29.98,West,275,3.6,3.6,44,0.00,,---,0.08,VWS V13.01,2013-07-28 20:32:00,
2013-07-28 15:37:00,63.0,41.3,29.98,SW,216,0.0,4.5,45,0.00,,---,0.08,VWS V13.01,2013-07-28 20:37:00,
2013-07-28 15:42:00,62.6,41.0,29.98,NNE,13,2.7,3.6,45,0.00,,---,0.08,VWS V13.01,2013-07-28 20:42:00,
2013-07-28 15:47:00,62.4,41.9,29.98,North,8,0.0,0.0,47,0.00,,---,0.08,VWS V13.01,2013-07-28 20:47:00,
2013-07-28 15:52:00,62.1,41.6,29.98,North,11,0.0,0.0,47,0.00,,---,0.08,VWS V13.01,2013-07-28 20:52:00,
2013-07-28 15:57:00,61.9,42.0,29.98,SW,219,3.6,3.6,48,0.00,,---,0.08,VWS V13.01,2013-07-28 20:57:00,
2013-07-28 16:02:00,61.7,41.8,29.98,NNE,17,0.0,4.0,48,0.00,,---,0.08,VWS V13.01,2013-07-28 21:02:00,
2013-07-28 16:07:00,61.5,41.7,29.98,West,275,0.0,0.0,48,0.00,,---,0.08,VWS V13.01,2013-07-28 21:07:00,
2013-07-28 16:12:00,61.3,42.0,29.98,West,281,0.0,0.0,49,0.00,,---,0.08,VWS V13.01,2013-07-28 21:12:00,
2013-07-28 16:17:00,61.3,42.0,29.98,West,281,0.0,0.0,49,0.00,,---,0.08,VWS V13.01,2013-07-28 21:17:00,
2013-07-28 16:22:00,61.3,42.6,29.98,North,8,0.0,0.0,50,0.00,,---,0.08,VWS V13.01,2013-07-28 21:22:00,
2013-07-28 16:27:00,61.5,42.7,29.98,NE,41,0.0,0.0,50,0.00,,---,0.08,VWS V13.01,2013-07-28 21:27:00,
2013-07-28 16:32:00,61.7,42.9,29.98,SSW,211,0.0,0.0,50,0.00,,---,0.08,VWS V13.01,2013-07-28 21:32:00,
2013-07-28 16:37:00,61.7,42.9,29.98,West,262,0.0,4.5,50,0.00,,---,0.08,VWS V13.01,2013-07-28 21:37:00,
2013-07-28 16:42:00,61.7,42.4,29.98,NE,50,0.0,0.0,49,0.00,,---,0.08,VWS V13.01,2013-07-28 21:42:00,
2013-07-28 16:47:00,61.7,42.4,29.98,NW,313,0.0,0.0,49,0.00,,---,0.08,VWS V13.01,2013-07-28 21:47:00,
2013-07-28 16:52:00,61.9,42.5,29.98,North,357,0.0,0.0,49,0.00,,---,0.08,VWS V13.01,2013-07-28 21:52:00,
2013-07-28 16:57:00,61.9,42.5,29.98,NE,40,0.0,0.0,49,0.00,,---,0.08,VWS V13.01,2013-07-28 21:57:00,
2013-07-28 17:02:00,61.9,42.5,29.98,WSW,252,0.0,0.0,49,0.00,,---,0.08,VWS V13.01,2013-07-28 22:02:00,
2013-07-28 17:07:00,61.9,42.5,29.98,WSW,252,0.0,0.0,49,0.00,,---,0.08,VWS V13.01,2013-07-28 22:07:00,
2013-07-28 17:12:00,61.9,43.1,30.01,WSW,252,0.0,0.0,50,0.00,,---,0.08,VWS V13.01,2013-07-28 22:12:00,
2013-07-28 17:17:00,61.9,43.6,30.01,WSW,252,0.0,0.0,51,0.00,,---,0.08,VWS V13.01,2013-07-28 22:17:00,
2013-07-28 17:22:00,61.9,44.1,30.01,WSW,252,0.0,0.0,52,0.00,,---,0.08,VWS V13.01,2013-07-28 22:22:00,
2013-07-28 17:28:00,61.9,44.1,30.01,WSW,252,0.0,0.0,52,0.00,,---,0.08,VWS V13.01,2013-07-28 22:28:00,
2013-07-28 17:33:00,61.9,43.6,30.01,WSW,252,0.0,0.0,51,0.00,,---,0.08,VWS V13.01,2013-07-28 22:33:00,
2013-07-28 17:38:00,61.9,43.6,30.01,WSW,252,0.0,0.0,51,0.00,,---,0.08,VWS V13.01,2013-07-28 22:38:00,
2013-07-28 17:43:00,61.9,44.1,30.01,WSW,252,0.0,0.0,52,0.00,,---,0.08,VWS V13.01,2013-07-28 22:43:00,
2013-07-28 17:48:00,61.9,44.1,30.01,WSW,252,0.0,0.0,52,0.00,,---,0.08,VWS V13.01,2013-07-28 22:48:00,
2013-07-28 17:53:00,61.9,44.1,30.01,WSW,252,0.0,0.0,52,0.00,,---,0.08,VWS V13.01,2013-07-28 22:53:00,
2013-07-28 17:58:00,61.9,44.6,30.01,WSW,252,0.0,0.0,53,0.00,,---,0.08,VWS V13.01,2013-07-28 22:58:00,
2013-07-28 18:03:00,61.7,44.9,30.01,WSW,252,0.0,0.0,54,0.00,,---,0.08,VWS V13.01,2013-07-28 23:03:00,
2013-07-28 18:08:00,61.7,44.9,30.01,WSW,252,0.0,0.0,54,0.00,,---,0.08,VWS V13.01,2013-07-28 23:08:00,
2013-07-28 18:13:00,61.7,44.9,30.01,WSW,252,0.0,0.0,54,0.00,,---,0.08,VWS V13.01,2013-07-28 23:13:00,
2013-07-28 18:18:00,61.7,45.9,30.01,WSW,252,0.0,0.0,56,0.00,,---,0.08,VWS V13.01,2013-07-28 23:18:00,
2013-07-28 18:23:00,61.5,46.2,30.01,WSW,252,0.0,0.0,57,0.00,,---,0.08,VWS V13.01,2013-07-28 23:23:00,
2013-07-28 18:28:00,61.5,46.2,30.01,WSW,252,0.0,0.0,57,0.00,,---,0.08,VWS V13.01,2013-07-28 23:28:00,
2013-07-28 18:33:00,61.5,46.2,30.01,WSW,252,0.0,0.0,57,0.00,,---,0.08,VWS V13.01,2013-07-28 23:33:00,
2013-07-28 18:38:00,61.7,45.9,30.01,WSW,252,0.0,0.0,56,0.00,,---,0.08,VWS V13.01,2013-07-28 23:38:00,
2013-07-28 18:44:00,61.7,45.9,30.01,WSW,252,0.0,0.0,56,0.00,,---,0.08,VWS V13.01,2013-07-28 23:44:00,
2013-07-28 18:49:00,61.7,46.3,30.01,WSW,252,0.0,0.0,57,0.00,,---,0.08,VWS V13.01,2013-07-28 23:49:00,
2013-07-28 18:54:00,61.7,46.8,30.01,WSW,252,0.0,0.0,58,0.00,,---,0.08,VWS V13.01,2013-07-28 23:54:00,
2013-07-28 18:59:00,61.5,46.6,30.01,WSW,252,0.0,0.0,58,0.00,,---,0.08,VWS V13.01,2013-07-28 23:59:00,
2013-07-28 19:04:00,61.5,46.6,30.01,WSW,252,0.0,0.0,58,0.00,,---,0.08,VWS V13.01,2013-07-29 00:04:00,
2013-07-28 19:09:00,61.5,47.1,30.01,WSW,252,0.0,0.0,59,0.00,,---,0.08,VWS V13.01,2013-07-29 00:09:00,
2013-07-28 19:14:00,61.5,47.1,30.01,WSW,252,0.0,0.0,59,0.00,,---,0.08,VWS V13.01,2013-07-29 00:14:00,
2013-07-28 19:19:00,61.3,46.9,30.01,WSW,252,0.0,0.0,59,0.00,,---,0.08,VWS V13.01,2013-07-29 00:19:00,
2013-07-28 19:24:00,61.3,46.9,30.01,WSW,252,0.0,3.1,59,0.00,,---,0.08,VWS V13.01,2013-07-29 00:24:00,
2013-07-28 19:29:00,61.3,46.0,30.04,WSW,252,0.0,0.0,57,0.00,,---,0.08,VWS V13.01,2013-07-29 00:29:00,
2013-07-28 19:34:00,61.3,45.5,30.04,WSW,252,3.6,3.6,56,0.00,,---,0.08,VWS V13.01,2013-07-29 00:34:00,
2013-07-28 19:39:00,61.2,39.7,30.04,NE,45,4.0,4.5,45,0.00,,---,0.08,VWS V13.01,2013-07-29 00:39:00,
2013-07-28 19:44:00,61.2,37.9,30.04,NE,45,3.6,4.7,42,0.00,,---,0.08,VWS V13.01,2013-07-29 00:44:00,
2013-07-28 19:49:00,61.0,37.1,30.04,NE,53,0.0,3.1,41,0.00,,---,0.08,VWS V13.01,2013-07-29 00:49:00,
2013-07-28 19:54:00,61.0,37.1,30.04,NE,53,0.0,0.0,41,0.00,,---,0.08,VWS V13.01,2013-07-29 00:54:00,
2013-07-28 19:59:00,60.6,38.0,30.04,NE,53,0.0,0.0,43,0.00,,---,0.08,VWS V13.01,2013-07-29 00:59:00,
2013-07-28 20:04:00,60.4,38.4,30.04,NE,53,0.0,0.0,44,0.00,,---,0.08,VWS V13.01,2013-07-29 01:04:00,
2013-07-28 20:09:00,60.3,38.8,30.04,NE,53,0.0,0.0,45,0.00,,---,0.08,VWS V13.01,2013-07-29 01:09:00,
2013-07-28 20:14:00,59.9,38.5,30.04,NE,53,0.0,0.0,45,0.00,,---,0.08,VWS V13.01,2013-07-29 01:14:00,
2013-07-28 20:19:00,59.5,38.8,30.04,NE,53,0.0,0.0,46,0.00,,---,0.08,VWS V13.01,2013-07-29 01:19:00,
2013-07-28 20:25:00,59.2,39.5,30.04,NE,53,0.0,0.0,48,0.00,,---,0.08,VWS V13.01,2013-07-29 01:25:00,
2013-07-28 20:30:00,59.0,39.9,30.04,NE,53,0.0,0.0,49,0.00,,---,0.08,VWS V13.01,2013-07-29 01:30:00,
2013-07-28 20:35:00,58.8,40.2,30.04,NE,53,0.0,0.0,50,0.00,,---,0.08,VWS V13.01,2013-07-29 01:35:00,
2013-07-28 20:40:00,58.5,40.4,30.04,NE,53,0.0,0.0,51,0.00,,---,0.08,VWS V13.01,2013-07-29 01:40:00,
2013-07-28 20:45:00,58.5,41.4,30.04,NE,53,0.0,0.0,53,0.00,,---,0.08,VWS V13.01,2013-07-29 01:45:00,
2013-07-28 20:50:00,58.3,41.7,30.04,NE,53,0.0,0.0,54,0.00,,---,0.08,VWS V13.01,2013-07-29 01:50:00,
2013-07-28 20:55:00,58.1,41.6,30.04,NE,53,0.0,0.0,54,0.00,,---,0.08,VWS V13.01,2013-07-29 01:55:00,
2013-07-28 21:00:00,57.9,41.4,30.04,NE,53,0.0,0.0,54,0.00,,---,0.08,VWS V13.01,2013-07-29 02:00:00,
2013-07-28 21:06:00,57.9,41.4,30.04,NE,53,0.0,0.0,54,0.00,,---,0.08,VWS V13.01,2013-07-29 02:06:00,
2013-07-28 21:11:00,57.7,41.7,30.04,NE,54,0.0,0.0,55,0.00,,---,0.08,VWS V13.01,2013-07-29 02:11:00,
2013-07-28 21:16:00,57.6,42.0,30.04,NE,53,0.0,0.0,56,0.00,,---,0.08,VWS V13.01,2013-07-29 02:16:00,
2013-07-28 21:21:00,57.6,42.5,30.04,NE,53,0.0,0.0,57,0.00,,---,0.08,VWS V13.01,2013-07-29 02:21:00,
2013-07-28 21:26:00,57.4,42.3,30.04,NE,54,0.0,0.0,57,0.00,,---,0.08,VWS V13.01,2013-07-29 02:26:00,
2013-07-28 21:31:00,57.4,42.7,30.04,NE,53,0.0,0.0,58,0.00,,---,0.08,VWS V13.01,2013-07-29 02:31:00,
2013-07-28 21:36:00,57.4,42.7,30.04,NE,53,0.0,0.0,58,0.00,,---,0.08,VWS V13.01,2013-07-29 02:36:00,
2013-07-28 21:42:00,57.2,43.0,30.04,NE,53,0.0,0.0,59,0.00,,---,0.08,VWS V13.01,2013-07-29 02:42:00,
2013-07-28 21:47:00,57.2,43.9,30.07,NE,53,0.0,0.0,61,0.00,,---,0.08,VWS V13.01,2013-07-29 02:47:00,
2013-07-28 21:52:00,57.2,44.3,30.07,NE,53,0.0,0.0,62,0.00,,---,0.08,VWS V13.01,2013-07-29 02:52:00,
2013-07-28 21:57:00,57.0,44.6,30.07,NE,53,0.0,0.0,63,0.00,,---,0.08,VWS V13.01,2013-07-29 02:57:00,
2013-07-28 22:03:00,57.0,44.6,30.07,NE,53,0.0,0.0,63,0.00,,---,0.08,VWS V13.01,2013-07-29 03:03:00,
2013-07-28 22:08:00,56.8,44.8,30.07,NE,53,0.0,0.0,64,0.00,,---,0.08,VWS V13.01,2013-07-29 03:08:00,
2013-07-28 22:13:00,56.8,45.2,30.07,NE,53,0.0,0.0,65,0.00,,---,0.08,VWS V13.01,2013-07-29 03:13:00,
2013-07-28 22:19:00,56.7,45.0,30.07,NE,53,0.0,0.0,65,0.00,,---,0.08,VWS V13.01,2013-07-29 03:19:00,
2013-07-28 22:24:00,56.7,45.4,30.07,NE,53,0.0,0.0,66,0.00,,---,0.08,VWS V13.01,2013-07-29 03:24:00,
2013-07-28 22:30:00,56.7,45.4,30.07,NE,53,0.0,0.0,66,0.00,,---,0.08,VWS V13.01,2013-07-29 03:30:00,
2013-07-28 22:35:00,56.5,45.7,30.07,NE,54,0.0,0.0,67,0.00,,---,0.08,VWS V13.01,2013-07-29 03:35:00,
2013-07-28 22:40:00,56.5,45.7,30.07,NE,53,0.0,0.0,67,0.00,,---,0.08,VWS V13.01,2013-07-29 03:40:00,
2013-07-28 22:45:00,56.3,45.5,30.07,NE,53,0.0,0.0,67,0.00,,---,0.08,VWS V13.01,2013-07-29 03:45:00,
2013-07-28 22:50:00,56.5,45.7,30.07,NE,53,0.0,0.0,67,0.00,,---,0.08,VWS V13.01,2013-07-29 03:50:00,
2013-07-28 22:55:00,56.5,46.1,30.07,NE,53,0.0,0.0,68,0.00,,---,0.08,VWS V13.01,2013-07-29 03:55:00,
2013-07-28 23:01:00,56.3,45.9,30.07,NE,53,0.0,0.0,68,0.00,,---,0.08,VWS V13.01,2013-07-29 04:01:00,
2013-07-28 23:02:00,56.3,45.9,30.07,NE,53,0.0,0.0,68,0.00,,---,0.08,VWS V13.01,2013-07-29 04:02:00,
2013-07-28 23:07:00,56.3,45.9,30.07,NE,53,0.0,0.0,68,0.00,,---,0.08,VWS V13.01,2013-07-29 04:07:00,
2013-07-28 23:12:00,56.3,45.9,30.07,NE,53,0.0,0.0,68,0.00,,---,0.08,VWS V13.01,2013-07-29 04:12:00,
2013-07-28 23:17:00,56.1,45.7,30.07,NE,53,0.0,0.0,68,0.00,,---,0.08,VWS V13.01,2013-07-29 04:17:00,
2013-07-28 23:22:00,55.9,45.5,30.07,NE,53,0.0,0.0,68,0.00,,---,0.08,VWS V13.01,2013-07-29 04:22:00,
2013-07-28 23:27:00,55.6,44.8,30.07,NE,53,0.0,0.0,67,0.00,,---,0.08,VWS V13.01,2013-07-29 04:27:00,
2013-07-28 23:32:00,55.2,44.5,30.07,NE,53,0.0,0.0,67,0.00,,---,0.08,VWS V13.01,2013-07-29 04:32:00,
2013-07-28 23:37:00,54.9,44.1,30.07,NE,53,0.0,0.0,67,0.00,,---,0.08,VWS V13.01,2013-07-29 04:37:00,
2013-07-28 23:43:00,54.5,44.2,30.07,NE,54,0.0,0.0,68,0.00,,---,0.08,VWS V13.01,2013-07-29 04:43:00,
2013-07-28 23:47:00,54.1,44.2,30.07,NE,53,0.0,0.0,69,0.00,,---,0.08,VWS V13.01,2013-07-29 04:47:00,
2013-07-28 23:52:00,53.8,43.9,30.07,NE,53,0.0,0.0,69,0.00,,---,0.08,VWS V13.01,2013-07-29 04:52:00,
2013-07-28 23:57:00,53.6,43.7,30.07,NE,53,0.0,0.0,69,0.00,,---,0.08,VWS V13.01,2013-07-29 04:57:00,